Simultaneous Nadir Overpasses (SNOs) Predictions

Prediction of SNOs between GOES-14 and AQUA Satellite Orbit:

Table of predicted SNOs for the next 14.0 days since TLE Epoch: 8/14/2021
Index Date Time (GOES-14) GOES-14 Lat,Lon AQUA Lat,Lon Distance(km) Time Diff (sec)
1 08/14/2021 08:47:56 -0.42,-104.20 0.35,-107.74 402.61 80
2 08/16/2021 08:35:45 -0.42,-104.20 -0.32,-104.79 65.94 80
3 08/18/2021 08:20:54 -0.42,-104.20 -0.93,-101.82 270.37 80
4 08/18/2021 20:42:18 0.44,-104.37 -0.15,-107.02 302.05 80
5 08/20/2021 20:32:47 0.45,-104.38 0.53,-104.07 34.82 80
6 08/22/2021 20:20:35 0.45,-104.39 1.15,-101.11 372.35 80
7 08/23/2021 08:41:50 -0.47,-104.24 -0.05,-106.27 230.54 80
8 08/25/2021 08:26:58 -0.46,-104.25 -0.67,-103.31 107.09 80
9 08/25/2021 20:48:23 0.48,-104.39 -0.40,-108.51 468.27 80
10 08/27/2021 08:14:46 -0.46,-104.26 -1.29,-100.35 444.97 80
11 08/27/2021 20:36:11 0.48,-104.41 0.23,-105.55 129.82 80
